Time,TemperatureF,DewpointF,PressureIn,WindDirection,WindDirectionDegrees,WindSpeedMPH,WindSpeedGustMPH,Humidity,HourlyPrecipIn,Conditions,Clouds,dailyrainin,SoftwareType,DateUTC
2013-07-16 00:01:00,76.6,72.5,30.27,WSW,248,0.0,0.0,87,0.00,,---,0.00,VWS V14.00,2013-07-16 04:01:00,
2013-07-16 00:02:00,76.6,72.5,30.27,WSW,248,0.0,0.0,87,0.00,,---,0.00,VWS V14.00,2013-07-16 04:02:00,
2013-07-16 00:07:00,76.6,72.5,30.27,WSW,248,0.0,0.0,87,0.00,,---,0.00,VWS V14.00,2013-07-16 04:07:00,
2013-07-16 00:12:00,76.5,72.3,30.27,WSW,248,0.0,0.0,87,0.00,,---,0.00,VWS V14.00,2013-07-16 04:12:00,
2013-07-16 00:18:00,76.5,72.3,30.27,WSW,248,0.0,0.0,87,0.00,,---,0.00,VWS V14.00,2013-07-16 04:18:00,
2013-07-16 00:23:00,76.5,72.7,30.27,WSW,248,0.0,0.0,88,0.00,,---,0.00,VWS V14.00,2013-07-16 04:23:00,
2013-07-16 00:28:00,76.3,72.5,30.27,WSW,248,0.0,0.0,88,0.00,,---,0.00,VWS V14.00,2013-07-16 04:28:00,
2013-07-16 00:33:00,76.3,72.5,30.27,WSW,248,0.0,0.0,88,0.00,,---,0.00,VWS V14.00,2013-07-16 04:33:00,
2013-07-16 00:38:00,76.3,72.5,30.27,WSW,248,0.0,0.0,88,0.00,,---,0.00,VWS V14.00,2013-07-16 04:38:00,
2013-07-16 00:43:00,76.1,72.3,30.27,WSW,248,0.0,0.0,88,0.00,,---,0.00,VWS V14.00,2013-07-16 04:43:00,
2013-07-16 00:48:00,76.1,72.3,30.27,WSW,248,0.0,0.0,88,0.00,,---,0.00,VWS V14.00,2013-07-16 04:48:00,
2013-07-16 00:53:00,76.1,72.3,30.27,WSW,248,0.0,0.0,88,0.00,,---,0.00,VWS V14.00,2013-07-16 04:53:00,
2013-07-16 00:58:00,75.9,72.4,30.27,WSW,248,0.0,0.0,89,0.00,,---,0.00,VWS V14.00,2013-07-16 04:58:00,
2013-07-16 01:03:00,75.9,72.4,30.27,WSW,248,0.0,0.0,89,0.00,,---,0.00,VWS V14.00,2013-07-16 05:03:00,
2013-07-16 01:08:00,75.9,72.4,30.30,WSW,248,0.0,0.0,89,0.00,,---,0.00,VWS V14.00,2013-07-16 05:08:00,
2013-07-16 01:13:00,75.9,72.4,30.30,WSW,248,0.0,0.0,89,0.00,,---,0.00,VWS V14.00,2013-07-16 05:13:00,
2013-07-16 01:18:00,75.9,72.4,30.30,WSW,248,0.0,0.0,89,0.00,,---,0.00,VWS V14.00,2013-07-16 05:18:00,
2013-07-16 01:23:00,75.9,72.4,30.27,WSW,248,0.0,0.0,89,0.00,,---,0.00,VWS V14.00,2013-07-16 05:23:00,
2013-07-16 01:28:00,75.7,72.3,30.27,WSW,248,0.0,0.0,89,0.00,,---,0.00,VWS V14.00,2013-07-16 05:28:00,
2013-07-16 01:33:00,75.7,72.3,30.27,WSW,248,0.0,0.0,89,0.00,,---,0.00,VWS V14.00,2013-07-16 05:33:00,
2013-07-16 01:38:00,75.9,72.4,30.30,WSW,248,0.0,0.0,89,0.00,,---,0.00,VWS V14.00,2013-07-16 05:38:00,
2013-07-16 01:43:00,75.9,72.4,30.30,WSW,248,0.0,0.0,89,0.00,,---,0.00,VWS V14.00,2013-07-16 05:43:00,
2013-07-16 01:48:00,75.9,72.4,30.30,WSW,248,0.0,0.0,89,0.00,,---,0.00,VWS V14.00,2013-07-16 05:48:00,
2013-07-16 01:53:00,75.9,72.4,30.27,WSW,248,0.0,0.0,89,0.00,,---,0.00,VWS V14.00,2013-07-16 05:53:00,
2013-07-16 01:58:00,75.9,72.4,30.27,WSW,248,0.0,0.0,89,0.00,,---,0.00,VWS V14.00,2013-07-16 05:58:00,
2013-07-16 02:03:00,75.9,72.4,30.27,WSW,248,0.0,0.0,89,0.00,,---,0.00,VWS V14.00,2013-07-16 06:03:00,
2013-07-16 02:08:00,75.9,72.4,30.27,WSW,248,0.0,0.0,89,0.00,,---,0.00,VWS V14.00,2013-07-16 06:08:00,
2013-07-16 02:13:00,75.9,72.4,30.27,WSW,248,0.0,0.0,89,0.00,,---,0.00,VWS V14.00,2013-07-16 06:13:00,
2013-07-16 02:18:00,75.9,72.8,30.27,WSW,248,0.0,0.0,90,0.00,,---,0.00,VWS V14.00,2013-07-16 06:18:00,
2013-07-16 02:23:00,75.9,72.8,30.27,WSW,248,0.0,0.0,90,0.00,,---,0.00,VWS V14.00,2013-07-16 06:23:00,
2013-07-16 02:28:00,75.7,72.6,30.27,WSW,248,0.0,0.0,90,0.00,,---,0.00,VWS V14.00,2013-07-16 06:28:00,
2013-07-16 02:33:00,75.9,72.8,30.27,WSW,248,0.0,0.0,90,0.00,,---,0.00,VWS V14.00,2013-07-16 06:33:00,
2013-07-16 02:38:00,75.9,72.8,30.27,WSW,248,0.0,0.0,90,0.00,,---,0.00,VWS V14.00,2013-07-16 06:38:00,
2013-07-16 02:43:00,75.7,72.6,30.27,WSW,248,0.0,0.0,90,0.00,,---,0.00,VWS V14.00,2013-07-16 06:43:00,
2013-07-16 02:48:00,75.7,72.6,30.27,WSW,248,0.0,0.0,90,0.00,,---,0.00,VWS V14.00,2013-07-16 06:48:00,
2013-07-16 02:54:00,75.7,72.6,30.24,WSW,248,0.0,0.0,90,0.00,,---,0.00,VWS V14.00,2013-07-16 06:54:00,
2013-07-16 02:59:00,75.6,72.4,30.24,WSW,248,0.0,0.0,90,0.00,,---,0.00,VWS V14.00,2013-07-16 06:59:00,
2013-07-16 03:04:00,75.6,72.4,30.24,WSW,248,0.0,0.0,90,0.00,,---,0.00,VWS V14.00,2013-07-16 07:04:00,
2013-07-16 03:09:00,75.4,72.2,30.24,WSW,248,0.0,0.0,90,0.00,,---,0.00,VWS V14.00,2013-07-16 07:09:00,
2013-07-16 03:14:00,75.4,72.2,30.24,WSW,248,0.0,0.0,90,0.00,,---,0.00,VWS V14.00,2013-07-16 07:14:00,
2013-07-16 03:19:00,75.4,72.2,30.24,WSW,248,0.0,0.0,90,0.00,,---,0.00,VWS V14.00,2013-07-16 07:19:00,
2013-07-16 03:24:00,75.4,72.6,30.24,WSW,248,0.0,0.0,91,0.00,,---,0.00,VWS V14.00,2013-07-16 07:24:00,
2013-07-16 03:29:00,75.4,72.6,30.24,WSW,248,0.0,0.0,91,0.00,,---,0.00,VWS V14.00,2013-07-16 07:29:00,
2013-07-16 03:34:00,75.2,72.4,30.24,WSW,248,0.0,0.0,91,0.00,,---,0.00,VWS V14.00,2013-07-16 07:34:00,
2013-07-16 03:39:00,75.2,72.4,30.24,WSW,248,0.0,0.0,91,0.00,,---,0.00,VWS V14.00,2013-07-16 07:39:00,
2013-07-16 03:44:00,75.2,72.4,30.24,WSW,248,0.0,0.0,91,0.00,,---,0.00,VWS V14.00,2013-07-16 07:44:00,
2013-07-16 03:49:00,75.2,72.4,30.24,WSW,248,0.0,0.0,91,0.00,,---,0.00,VWS V14.00,2013-07-16 07:49:00,
2013-07-16 03:54:00,75.2,72.4,30.24,WSW,248,0.0,0.0,91,0.00,,---,0.00,VWS V14.00,2013-07-16 07:54:00,
2013-07-16 03:59:00,75.2,72.4,30.24,WSW,248,0.0,0.0,91,0.00,,---,0.00,VWS V14.00,2013-07-16 07:59:00,
2013-07-16 04:04:00,75.0,72.5,30.24,WSW,248,0.0,0.0,92,0.00,,---,0.00,VWS V14.00,2013-07-16 08:04:00,
2013-07-16 04:09:00,75.0,72.5,30.24,WSW,248,0.0,0.0,92,0.00,,---,0.00,VWS V14.00,2013-07-16 08:09:00,
2013-07-16 04:14:00,75.0,72.5,30.24,WSW,248,0.0,0.0,92,0.00,,---,0.00,VWS V14.00,2013-07-16 08:14:00,
2013-07-16 04:19:00,75.0,72.5,30.24,WSW,248,0.0,0.0,92,0.00,,---,0.00,VWS V14.00,2013-07-16 08:19:00,
2013-07-16 04:24:00,74.8,72.4,30.24,WSW,248,0.0,0.0,92,0.00,,---,0.00,VWS V14.00,2013-07-16 08:24:00,
2013-07-16 04:29:00,74.8,72.4,30.24,WSW,248,0.0,0.0,92,0.00,,---,0.00,VWS V14.00,2013-07-16 08:29:00,
2013-07-16 04:34:00,74.7,72.2,30.24,WSW,248,0.0,0.0,92,0.00,,---,0.00,VWS V14.00,2013-07-16 08:34:00,
2013-07-16 04:39:00,74.7,72.2,30.24,WSW,248,0.0,0.0,92,0.00,,---,0.00,VWS V14.00,2013-07-16 08:39:00,
2013-07-16 04:44:00,74.5,72.0,30.24,WSW,248,0.0,0.0,92,0.00,,---,0.00,VWS V14.00,2013-07-16 08:44:00,
2013-07-16 04:49:00,74.5,72.0,30.24,WSW,248,0.0,0.0,92,0.00,,---,0.00,VWS V14.00,2013-07-16 08:49:00,
2013-07-16 04:54:00,74.5,72.0,30.27,WSW,248,0.0,0.0,92,0.00,,---,0.00,VWS V14.00,2013-07-16 08:54:00,
2013-07-16 04:59:00,74.5,72.0,30.27,WSW,248,0.0,0.0,92,0.00,,---,0.00,VWS V14.00,2013-07-16 08:59:00,
2013-07-16 05:04:00,74.3,71.8,30.27,WSW,248,0.0,0.0,92,0.00,,---,0.00,VWS V14.00,2013-07-16 09:04:00,
2013-07-16 05:09:00,74.3,71.8,30.27,WSW,248,0.0,0.0,92,0.00,,---,0.00,VWS V14.00,2013-07-16 09:09:00,
2013-07-16 05:14:00,74.3,71.8,30.27,WSW,248,0.0,0.0,92,0.00,,---,0.00,VWS V14.00,2013-07-16 09:14:00,
2013-07-16 05:19:00,74.3,72.2,30.27,WSW,248,0.0,0.0,93,0.00,,---,0.00,VWS V14.00,2013-07-16 09:19:00,
2013-07-16 05:25:00,74.3,72.2,30.27,WSW,248,0.0,0.0,93,0.00,,---,0.00,VWS V14.00,2013-07-16 09:25:00,
2013-07-16 05:30:00,74.3,72.2,30.27,WSW,248,0.0,0.0,93,0.00,,---,0.00,VWS V14.00,2013-07-16 09:30:00,
2013-07-16 05:35:00,74.1,72.0,30.27,WSW,248,0.0,0.0,93,0.00,,---,0.00,VWS V14.00,2013-07-16 09:35:00,
2013-07-16 05:40:00,74.1,72.0,30.27,WSW,248,0.0,0.0,93,0.00,,---,0.00,VWS V14.00,2013-07-16 09:40:00,
2013-07-16 05:45:00,74.1,72.0,30.27,WSW,248,0.0,0.0,93,0.00,,---,0.00,VWS V14.00,2013-07-16 09:45:00,
2013-07-16 05:50:00,74.1,72.0,30.27,WSW,248,0.0,0.0,93,0.00,,---,0.00,VWS V14.00,2013-07-16 09:50:00,
2013-07-16 05:55:00,73.9,71.8,30.27,WSW,248,0.0,0.0,93,0.00,,---,0.00,VWS V14.00,2013-07-16 09:55:00,
2013-07-16 06:00:00,73.9,71.8,30.27,WSW,248,0.0,0.0,93,0.00,,---,0.00,VWS V14.00,2013-07-16 10:00:00,
2013-07-16 06:05:00,73.9,71.8,30.27,WSW,248,0.0,0.0,93,0.00,,---,0.00,VWS V14.00,2013-07-16 10:05:00,
2013-07-16 06:10:00,73.9,71.8,30.27,WSW,248,0.0,0.0,93,0.00,,---,0.00,VWS V14.00,2013-07-16 10:10:00,
2013-07-16 06:15:00,73.9,71.8,30.27,WSW,248,0.0,0.0,93,0.00,,---,0.00,VWS V14.00,2013-07-16 10:15:00,
2013-07-16 06:20:00,73.9,71.8,30.27,WSW,248,0.0,0.0,93,0.00,,---,0.00,VWS V14.00,2013-07-16 10:20:00,
2013-07-16 06:25:00,74.1,72.0,30.27,WSW,248,0.0,0.0,93,0.00,,---,0.00,VWS V14.00,2013-07-16 10:25:00,
2013-07-16 06:30:00,74.1,72.0,30.27,WSW,248,0.0,0.0,93,0.00,,---,0.00,VWS V14.00,2013-07-16 10:30:00,
2013-07-16 06:35:00,74.1,71.7,30.27,WSW,248,0.0,0.0,92,0.00,,---,0.00,VWS V14.00,2013-07-16 10:35:00,
2013-07-16 06:40:00,74.1,71.7,30.30,WSW,248,0.0,0.0,92,0.00,,---,0.00,VWS V14.00,2013-07-16 10:40:00,
2013-07-16 06:45:00,74.1,71.7,30.30,WSW,248,0.0,0.0,92,0.00,,---,0.00,VWS V14.00,2013-07-16 10:45:00,
2013-07-16 06:50:00,74.1,71.7,30.30,WSW,248,0.0,0.0,92,0.00,,---,0.00,VWS V14.00,2013-07-16 10:50:00,
2013-07-16 06:55:00,74.1,71.7,30.30,WSW,248,0.0,0.0,92,0.00,,---,0.00,VWS V14.00,2013-07-16 10:55:00,
2013-07-16 07:00:00,74.3,71.8,30.30,WSW,248,0.0,0.0,92,0.00,,---,0.00,VWS V14.00,2013-07-16 11:00:00,
2013-07-16 07:05:00,74.3,71.8,30.30,WSW,248,0.0,0.0,92,0.00,,---,0.00,VWS V14.00,2013-07-16 11:05:00,
2013-07-16 07:10:00,74.5,72.0,30.30,WSW,248,0.0,0.0,92,0.00,,---,0.00,VWS V14.00,2013-07-16 11:10:00,
2013-07-16 07:15:00,74.7,72.2,30.30,WSW,248,0.0,0.0,92,0.00,,---,0.00,VWS V14.00,2013-07-16 11:15:00,
2013-07-16 07:20:00,74.8,72.4,30.30,WSW,248,0.0,0.0,92,0.00,,---,0.00,VWS V14.00,2013-07-16 11:20:00,
2013-07-16 07:25:00,75.0,72.5,30.30,WSW,248,0.0,0.0,92,0.00,,---,0.00,VWS V14.00,2013-07-16 11:25:00,
2013-07-16 07:30:00,75.2,72.4,30.30,WSW,248,0.0,0.0,91,0.00,,---,0.00,VWS V14.00,2013-07-16 11:30:00,
2013-07-16 07:35:00,75.4,72.6,30.30,WSW,248,0.0,0.0,91,0.00,,---,0.00,VWS V14.00,2013-07-16 11:35:00,
2013-07-16 07:40:00,75.6,72.8,30.30,WSW,248,0.0,0.0,91,0.00,,---,0.00,VWS V14.00,2013-07-16 11:40:00,
2013-07-16 07:45:00,75.9,72.8,30.30,WSW,248,0.0,0.0,90,0.00,,---,0.00,VWS V14.00,2013-07-16 11:45:00,
2013-07-16 07:51:00,76.1,73.0,30.27,WSW,248,0.0,0.0,90,0.00,,---,0.00,VWS V14.00,2013-07-16 11:51:00,
2013-07-16 07:56:00,76.5,73.3,30.27,WSW,248,0.0,0.0,90,0.00,,---,0.00,VWS V14.00,2013-07-16 11:56:00,
2013-07-16 08:01:00,76.6,73.5,30.27,WSW,248,0.0,0.0,90,0.00,,---,0.00,VWS V14.00,2013-07-16 12:01:00,
2013-07-16 08:06:00,77.0,73.5,30.30,WSW,248,1.3,1.3,89,0.00,,---,0.00,VWS V14.00,2013-07-16 12:06:00,
2013-07-16 08:11:00,77.4,73.5,30.30,WSW,248,0.0,1.6,88,0.00,,---,0.00,VWS V14.00,2013-07-16 12:11:00,
2013-07-16 08:16:00,77.9,74.1,30.30,WSW,248,0.0,0.0,88,0.00,,---,0.00,VWS V14.00,2013-07-16 12:16:00,
2013-07-16 08:21:00,78.3,74.4,30.33,WSW,248,0.0,0.0,88,0.00,,---,0.00,VWS V14.00,2013-07-16 12:21:00,
2013-07-16 08:26:00,78.8,74.3,30.33,WSW,248,1.1,1.6,86,0.00,,---,0.00,VWS V14.00,2013-07-16 12:26:00,
2013-07-16 08:31:00,79.2,74.3,30.33,WSW,248,0.0,0.9,85,0.00,,---,0.00,VWS V14.00,2013-07-16 12:31:00,
2013-07-16 08:36:00,79.3,74.4,30.30,WSW,248,0.0,0.0,85,0.00,,---,0.00,VWS V14.00,2013-07-16 12:36:00,
2013-07-16 08:41:00,79.7,74.4,30.30,WSW,248,1.1,1.3,84,0.00,,---,0.00,VWS V14.00,2013-07-16 12:41:00,
2013-07-16 08:46:00,79.9,74.3,30.30,West,270,0.0,1.3,83,0.00,,---,0.00,VWS V14.00,2013-07-16 12:46:00,
2013-07-16 08:51:00,80.1,74.1,30.30,SW,225,1.3,2.0,82,0.00,,---,0.00,VWS V14.00,2013-07-16 12:51:00,
2013-07-16 08:56:00,80.2,73.9,30.30,WSW,248,0.0,3.1,81,0.00,,---,0.00,VWS V14.00,2013-07-16 12:56:00,
2013-07-16 09:01:00,80.4,74.1,30.30,SW,225,0.0,2.2,81,0.00,,---,0.00,VWS V14.00,2013-07-16 13:01:00,
2013-07-16 09:06:00,80.6,73.9,30.30,WSW,248,2.0,2.0,80,0.00,,---,0.00,VWS V14.00,2013-07-16 13:06:00,
2013-07-16 09:11:00,80.8,74.0,30.30,WSW,248,0.0,0.0,80,0.00,,---,0.00,VWS V14.00,2013-07-16 13:11:00,
2013-07-16 09:16:00,81.1,74.0,30.30,WSW,248,1.3,2.5,79,0.00,,---,0.00,VWS V14.00,2013-07-16 13:16:00,
2013-07-16 09:21:00,81.1,74.0,30.30,WSW,248,0.9,0.9,79,0.00,,---,0.00,VWS V14.00,2013-07-16 13:21:00,
2013-07-16 09:26:00,81.3,73.8,30.30,West,270,0.0,0.0,78,0.00,,---,0.00,VWS V14.00,2013-07-16 13:26:00,
2013-07-16 09:31:00,81.5,74.0,30.30,West,270,0.0,0.9,78,0.00,,---,0.00,VWS V14.00,2013-07-16 13:31:00,
2013-07-16 09:36:00,81.7,74.2,30.30,SW,225,0.0,0.0,78,0.00,,---,0.00,VWS V14.00,2013-07-16 13:36:00,
2013-07-16 09:41:00,81.9,73.9,30.30,SW,225,1.6,1.6,77,0.00,,---,0.00,VWS V14.00,2013-07-16 13:41:00,
2013-07-16 09:46:00,82.0,73.7,30.30,WSW,248,0.0,0.0,76,0.00,,---,0.00,VWS V14.00,2013-07-16 13:46:00,
2013-07-16 09:51:00,82.2,73.9,30.30,SW,225,0.0,1.1,76,0.00,,---,0.00,VWS V14.00,2013-07-16 13:51:00,
2013-07-16 09:56:00,82.4,74.1,30.30,WSW,248,2.0,2.7,76,0.00,,---,0.00,VWS V14.00,2013-07-16 13:56:00,
2013-07-16 10:02:00,82.8,74.0,30.30,SSW,202,0.0,0.0,75,0.00,,---,0.00,VWS V14.00,2013-07-16 14:02:00,
2013-07-16 10:07:00,82.8,74.0,30.27,WSW,248,1.1,1.1,75,0.00,,---,0.00,VWS V14.00,2013-07-16 14:07:00,
2013-07-16 10:12:00,82.9,74.2,30.27,West,270,0.9,2.5,75,0.00,,---,0.00,VWS V14.00,2013-07-16 14:12:00,
2013-07-16 10:17:00,83.3,74.2,30.27,SW,225,0.0,0.0,74,0.00,,---,0.00,VWS V14.00,2013-07-16 14:17:00,
2013-07-16 10:22:00,83.5,74.3,30.27,South,180,1.6,2.9,74,0.00,,---,0.00,VWS V14.00,2013-07-16 14:22:00,
2013-07-16 10:27:00,83.8,74.7,30.27,WSW,248,1.3,1.3,74,0.00,,---,0.00,VWS V14.00,2013-07-16 14:27:00,
2013-07-16 10:32:00,84.0,74.4,30.27,SW,225,2.2,2.2,73,0.00,,---,0.00,VWS V14.00,2013-07-16 14:32:00,
2013-07-16 10:37:00,84.2,74.2,30.30,West,270,2.5,2.5,72,0.00,,---,0.00,VWS V14.00,2013-07-16 14:37:00,
2013-07-16 10:42:00,84.4,73.9,30.30,SSW,202,0.0,1.3,71,0.00,,---,0.00,VWS V14.00,2013-07-16 14:42:00,
2013-07-16 10:47:00,84.6,74.1,30.30,SSW,202,0.0,0.0,71,0.00,,---,0.00,VWS V14.00,2013-07-16 14:47:00,
2013-07-16 10:52:00,84.9,74.1,30.30,West,270,2.0,2.7,70,0.00,,---,0.00,VWS V14.00,2013-07-16 14:52:00,
2013-07-16 10:57:00,85.1,74.2,30.30,SW,225,0.0,0.0,70,0.00,,---,0.00,VWS V14.00,2013-07-16 14:57:00,
2013-07-16 11:02:00,85.3,74.0,30.30,SW,225,0.0,1.3,69,0.00,,---,0.00,VWS V14.00,2013-07-16 15:02:00,
2013-07-16 11:07:00,85.6,73.9,30.30,WNW,292,0.0,1.3,68,0.00,,---,0.00,VWS V14.00,2013-07-16 15:07:00,
2013-07-16 11:12:00,86.2,73.9,30.30,WSW,248,0.0,0.0,67,0.00,,---,0.00,VWS V14.00,2013-07-16 15:12:00,
2013-07-16 11:17:00,86.4,74.1,30.30,SSW,202,0.0,0.0,67,0.00,,---,0.00,VWS V14.00,2013-07-16 15:17:00,
2013-07-16 11:22:00,86.4,73.7,30.30,West,270,2.0,2.0,66,0.00,,---,0.00,VWS V14.00,2013-07-16 15:22:00,
2013-07-16 11:27:00,86.5,73.8,30.30,SW,225,1.3,1.3,66,0.00,,---,0.00,VWS V14.00,2013-07-16 15:27:00,
2013-07-16 11:32:00,86.7,73.6,30.30,West,270,0.0,0.0,65,0.00,,---,0.00,VWS V14.00,2013-07-16 15:32:00,
2013-07-16 11:37:00,86.5,73.4,30.30,SW,225,1.1,1.1,65,0.00,,---,0.00,VWS V14.00,2013-07-16 15:37:00,
2013-07-16 11:42:00,86.4,72.8,30.30,SW,225,0.0,0.0,64,0.00,,---,0.00,VWS V14.00,2013-07-16 15:42:00,
2013-07-16 11:47:00,86.9,73.3,30.30,SSW,202,2.2,2.7,64,0.00,,---,0.00,VWS V14.00,2013-07-16 15:47:00,
2013-07-16 11:52:00,87.1,73.0,30.30,NW,315,0.0,0.0,63,0.00,,---,0.00,VWS V14.00,2013-07-16 15:52:00,
2013-07-16 11:57:00,86.4,72.3,30.30,WSW,248,0.9,2.0,63,0.00,,---,0.00,VWS V14.00,2013-07-16 15:57:00,
2013-07-16 12:02:00,86.7,72.6,30.30,WSW,248,1.6,2.7,63,0.00,,---,0.00,VWS V14.00,2013-07-16 16:02:00,
2013-07-16 12:07:00,87.6,73.5,30.30,SW,225,1.1,1.3,63,0.00,,---,0.00,VWS V14.00,2013-07-16 16:07:00,
2013-07-16 12:12:00,87.1,72.5,30.30,SW,225,1.6,1.6,62,0.00,,---,0.00,VWS V14.00,2013-07-16 16:12:00,
2013-07-16 12:18:00,87.6,72.5,30.30,WSW,248,0.0,2.5,61,0.00,,---,0.00,VWS V14.00,2013-07-16 16:18:00,
2013-07-16 12:23:00,88.3,73.2,30.30,SSW,202,2.2,3.6,61,0.00,,---,0.00,VWS V14.00,2013-07-16 16:23:00,
2013-07-16 12:28:00,89.1,73.4,30.30,SSW,202,0.0,1.6,60,0.00,,---,0.00,VWS V14.00,2013-07-16 16:28:00,
2013-07-16 12:33:00,89.1,72.9,30.30,WSW,248,2.5,2.5,59,0.00,,---,0.00,VWS V14.00,2013-07-16 16:33:00,
2013-07-16 12:38:00,90.1,73.9,30.30,WSW,248,0.0,2.0,59,0.00,,---,0.00,VWS V14.00,2013-07-16 16:38:00,
2013-07-16 12:43:00,90.9,73.5,30.30,West,270,0.9,1.3,57,0.00,,---,0.00,VWS V14.00,2013-07-16 16:43:00,
2013-07-16 12:48:00,91.2,73.9,30.30,WSW,248,2.0,2.5,57,0.00,,---,0.00,VWS V14.00,2013-07-16 16:48:00,
2013-07-16 12:53:00,91.0,73.7,30.30,SW,225,0.0,0.0,57,0.00,,---,0.00,VWS V14.00,2013-07-16 16:53:00,
2013-07-16 12:58:00,91.2,73.9,30.30,SW,225,0.0,0.9,57,0.00,,---,0.00,VWS V14.00,2013-07-16 16:58:00,
2013-07-16 13:03:00,90.3,72.0,30.30,West,270,1.3,2.0,55,0.00,,---,0.00,VWS V14.00,2013-07-16 17:03:00,
2013-07-16 13:08:00,89.4,71.7,30.30,WSW,248,0.0,1.3,56,0.00,,---,0.00,VWS V14.00,2013-07-16 17:08:00,
2013-07-16 13:13:00,89.4,71.7,30.30,West,270,0.9,2.0,56,0.00,,---,0.00,VWS V14.00,2013-07-16 17:13:00,
2013-07-16 13:19:00,88.9,71.7,30.30,SW,225,0.0,1.1,57,0.00,,---,0.00,VWS V14.00,2013-07-16 17:19:00,
2013-07-16 13:24:00,89.6,72.4,30.30,West,270,0.0,0.0,57,0.00,,---,0.00,VWS V14.00,2013-07-16 17:24:00,
2013-07-16 13:29:00,90.3,72.5,30.30,West,270,2.5,2.5,56,0.00,,---,0.00,VWS V14.00,2013-07-16 17:29:00,
2013-07-16 13:34:00,91.0,73.7,30.30,WSW,248,0.0,0.0,57,0.00,,---,0.00,VWS V14.00,2013-07-16 17:34:00,
2013-07-16 13:39:00,91.6,72.6,30.27,SSW,202,1.3,1.3,54,0.00,,---,0.00,VWS V14.00,2013-07-16 17:39:00,
2013-07-16 13:44:00,91.9,72.9,30.27,South,180,0.0,1.6,54,0.00,,---,0.00,VWS V14.00,2013-07-16 17:44:00,
2013-07-16 13:49:00,92.3,73.3,30.27,WSW,248,1.1,1.1,54,0.00,,---,0.00,VWS V14.00,2013-07-16 17:49:00,
2013-07-16 13:54:00,92.8,73.8,30.27,SW,225,0.0,0.0,54,0.00,,---,0.00,VWS V14.00,2013-07-16 17:54:00,
2013-07-16 13:59:00,93.2,73.0,30.27,WNW,292,2.5,2.5,52,0.00,,---,0.00,VWS V14.00,2013-07-16 17:59:00,
2013-07-16 14:04:00,93.0,72.8,30.27,SW,225,0.0,1.1,52,0.00,,---,0.00,VWS V14.00,2013-07-16 18:04:00,
2013-07-16 14:09:00,92.7,71.9,30.24,South,180,2.2,2.2,51,0.00,,---,0.00,VWS V14.00,2013-07-16 18:09:00,
2013-07-16 14:14:00,92.1,70.8,30.24,SSW,202,2.2,2.2,50,0.00,,---,0.00,VWS V14.00,2013-07-16 18:14:00,
2013-07-16 14:19:00,91.0,70.4,30.24,SSW,202,0.0,2.5,51,0.00,,---,0.00,VWS V14.00,2013-07-16 18:19:00,
2013-07-16 14:24:00,91.8,70.5,30.24,West,270,0.0,1.6,50,0.00,,---,0.00,VWS V14.00,2013-07-16 18:24:00,
2013-07-16 14:30:00,91.8,70.5,30.24,SSW,202,0.0,0.9,50,0.00,,---,0.00,VWS V14.00,2013-07-16 18:30:00,
2013-07-16 14:35:00,90.7,70.1,30.24,SSW,202,0.0,2.0,51,0.00,,---,0.00,VWS V14.00,2013-07-16 18:35:00,
2013-07-16 14:40:00,91.0,71.0,30.24,SSW,202,0.0,0.9,52,0.00,,---,0.00,VWS V14.00,2013-07-16 18:40:00,
2013-07-16 14:45:00,91.6,70.3,30.24,West,270,1.1,1.1,50,0.00,,---,0.00,VWS V14.00,2013-07-16 18:45:00,
2013-07-16 14:50:00,92.3,71.0,30.24,SW,225,2.2,3.6,50,0.00,,---,0.00,VWS V14.00,2013-07-16 18:50:00,
2013-07-16 14:55:00,92.7,71.3,30.24,SW,225,1.3,1.3,50,0.00,,---,0.00,VWS V14.00,2013-07-16 18:55:00,
2013-07-16 15:00:00,92.1,70.8,30.24,SSW,202,1.1,1.1,50,0.00,,---,0.00,VWS V14.00,2013-07-16 19:00:00,
2013-07-16 15:05:00,91.2,70.0,30.24,SW,225,3.1,3.1,50,0.00,,---,0.00,VWS V14.00,2013-07-16 19:05:00,
2013-07-16 15:10:00,90.3,69.8,30.24,WSW,248,0.0,0.0,51,0.00,,---,0.00,VWS V14.00,2013-07-16 19:10:00,
2013-07-16 15:16:00,90.7,70.7,30.24,SW,225,0.0,2.7,52,0.00,,---,0.00,VWS V14.00,2013-07-16 19:16:00,
2013-07-16 15:21:00,91.4,70.7,30.21,SSW,202,1.3,2.2,51,0.00,,---,0.00,VWS V14.00,2013-07-16 19:21:00,
2013-07-16 15:26:00,91.6,70.3,30.21,SW,225,0.0,1.3,50,0.00,,---,0.00,VWS V14.00,2013-07-16 19:26:00,
2013-07-16 15:31:00,91.9,71.8,30.21,SW,225,0.0,0.0,52,0.00,,---,0.00,VWS V14.00,2013-07-16 19:31:00,
2013-07-16 15:36:00,92.1,71.4,30.24,South,180,2.7,2.9,51,0.00,,---,0.00,VWS V14.00,2013-07-16 19:36:00,
2013-07-16 15:41:00,92.3,71.6,30.24,SSW,202,2.2,2.2,51,0.00,,---,0.00,VWS V14.00,2013-07-16 19:41:00,
2013-07-16 15:46:00,92.3,71.6,30.24,SSW,202,1.3,1.6,51,0.00,,---,0.00,VWS V14.00,2013-07-16 19:46:00,
2013-07-16 15:51:00,91.9,70.7,30.24,South,180,1.6,2.5,50,0.00,,---,0.00,VWS V14.00,2013-07-16 19:51:00,
2013-07-16 15:56:00,91.8,70.5,30.24,WSW,248,0.9,3.4,50,0.00,,---,0.00,VWS V14.00,2013-07-16 19:56:00,
2013-07-16 16:01:00,91.8,71.1,30.24,WSW,248,2.2,2.2,51,0.00,,---,0.00,VWS V14.00,2013-07-16 20:01:00,
2013-07-16 16:06:00,91.8,70.5,30.24,SSE,158,0.0,2.2,50,0.00,,---,0.00,VWS V14.00,2013-07-16 20:06:00,
2013-07-16 16:11:00,91.8,71.1,30.24,WSW,248,0.9,0.9,51,0.00,,---,0.00,VWS V14.00,2013-07-16 20:11:00,
2013-07-16 16:16:00,91.9,71.2,30.24,WSW,248,2.0,2.0,51,0.00,,---,0.00,VWS V14.00,2013-07-16 20:16:00,
2013-07-16 16:21:00,91.0,70.4,30.24,SSW,202,0.9,1.6,51,0.00,,---,0.00,VWS V14.00,2013-07-16 20:21:00,
2013-07-16 16:26:00,91.0,71.0,30.24,South,180,1.3,3.4,52,0.00,,---,0.00,VWS V14.00,2013-07-16 20:26:00,
2013-07-16 16:31:00,91.0,71.5,30.24,WSW,248,1.3,2.7,53,0.00,,---,0.00,VWS V14.00,2013-07-16 20:31:00,
2013-07-16 16:36:00,91.0,71.5,30.24,SSW,202,1.1,1.3,53,0.00,,---,0.00,VWS V14.00,2013-07-16 20:36:00,
2013-07-16 16:41:00,91.0,71.5,30.24,SSW,202,1.1,1.3,53,0.00,,---,0.00,VWS V14.00,2013-07-16 20:41:00,
2013-07-16 16:46:00,90.7,71.2,30.24,North,0,0.0,0.0,53,0.00,,---,0.00,VWS V14.00,2013-07-16 20:46:00,
2013-07-16 16:51:00,90.7,71.8,30.24,SW,225,0.0,0.0,54,0.00,,---,0.00,VWS V14.00,2013-07-16 20:51:00,
2013-07-16 16:56:00,90.7,71.8,30.24,WSW,248,2.0,2.0,54,0.00,,---,0.00,VWS V14.00,2013-07-16 20:56:00,
2013-07-16 17:01:00,90.3,71.4,30.24,SW,225,0.0,1.6,54,0.00,,---,0.00,VWS V14.00,2013-07-16 21:01:00,
2013-07-16 17:06:00,90.0,71.1,30.24,SW,225,0.0,3.6,54,0.00,,---,0.00,VWS V14.00,2013-07-16 21:06:00,
2013-07-16 17:11:00,89.8,70.9,30.24,WSW,248,0.0,1.6,54,0.00,,---,0.00,VWS V14.00,2013-07-16 21:11:00,
2013-07-16 17:16:00,90.1,71.8,30.24,North,0,2.7,3.1,55,0.00,,---,0.00,VWS V14.00,2013-07-16 21:16:00,
2013-07-16 17:21:00,90.1,71.8,30.21,North,0,2.0,2.0,55,0.00,,---,0.00,VWS V14.00,2013-07-16 21:21:00,
2013-07-16 17:26:00,90.0,71.6,30.21,SW,225,1.1,1.6,55,0.00,,---,0.00,VWS V14.00,2013-07-16 21:26:00,
2013-07-16 17:31:00,90.0,72.2,30.21,WSW,248,0.9,2.9,56,0.00,,---,0.00,VWS V14.00,2013-07-16 21:31:00,
2013-07-16 17:36:00,89.8,72.0,30.21,WSW,248,1.1,3.1,56,0.00,,---,0.00,VWS V14.00,2013-07-16 21:36:00,
2013-07-16 17:41:00,89.6,71.8,30.21,SW,225,0.9,1.1,56,0.00,,---,0.00,VWS V14.00,2013-07-16 21:41:00,
2013-07-16 17:46:00,89.6,72.4,30.21,SW,225,1.3,1.6,57,0.00,,---,0.00,VWS V14.00,2013-07-16 21:46:00,
2013-07-16 17:51:00,89.6,71.8,30.24,WSW,248,2.2,2.2,56,0.00,,---,0.00,VWS V14.00,2013-07-16 21:51:00,
2013-07-16 17:56:00,89.4,72.7,30.24,WSW,248,0.0,2.2,58,0.00,,---,0.00,VWS V14.00,2013-07-16 21:56:00,
2013-07-16 18:01:00,89.4,72.7,30.24,West,270,2.5,2.5,58,0.00,,---,0.00,VWS V14.00,2013-07-16 22:01:00,
2013-07-16 18:06:00,89.2,72.5,30.24,West,270,1.3,2.5,58,0.00,,---,0.00,VWS V14.00,2013-07-16 22:06:00,
2013-07-16 18:11:00,88.7,72.0,30.24,West,270,0.0,1.3,58,0.00,,---,0.00,VWS V14.00,2013-07-16 22:11:00,
2013-07-16 18:16:00,87.8,71.7,30.24,WSW,248,0.0,1.1,59,0.00,,---,0.00,VWS V14.00,2013-07-16 22:16:00,
2013-07-16 18:21:00,87.8,72.2,30.24,WSW,248,0.0,0.0,60,0.00,,---,0.00,VWS V14.00,2013-07-16 22:21:00,
2013-07-16 18:26:00,87.3,72.2,30.24,West,270,0.0,0.0,61,0.00,,---,0.00,VWS V14.00,2013-07-16 22:26:00,
2013-07-16 18:31:00,87.1,72.5,30.24,West,270,0.0,1.1,62,0.00,,---,0.00,VWS V14.00,2013-07-16 22:31:00,
2013-07-16 18:36:00,87.1,73.0,30.24,WSW,248,0.0,0.0,63,0.00,,---,0.00,VWS V14.00,2013-07-16 22:36:00,
2013-07-16 18:41:00,87.1,73.0,30.24,West,270,0.0,0.0,63,0.00,,---,0.00,VWS V14.00,2013-07-16 22:41:00,
2013-07-16 18:46:00,87.1,73.0,30.24,West,270,1.3,1.3,63,0.00,,---,0.00,VWS V14.00,2013-07-16 22:46:00,
2013-07-16 18:51:00,87.4,73.3,30.24,WSW,248,0.0,1.1,63,0.00,,---,0.00,VWS V14.00,2013-07-16 22:51:00,
2013-07-16 18:56:00,88.0,73.8,30.24,NW,315,0.0,2.7,63,0.00,,---,0.00,VWS V14.00,2013-07-16 22:56:00,
2013-07-16 19:01:00,88.2,73.5,30.24,NNW,338,0.0,0.0,62,0.00,,---,0.00,VWS V14.00,2013-07-16 23:01:00,
2013-07-16 19:06:00,88.2,73.5,30.24,WSW,248,0.0,0.0,62,0.00,,---,0.00,VWS V14.00,2013-07-16 23:06:00,
2013-07-16 19:11:00,88.2,73.5,30.24,WSW,248,0.0,0.0,62,0.00,,---,0.00,VWS V14.00,2013-07-16 23:11:00,
2013-07-16 19:16:00,88.2,73.5,30.24,WSW,248,0.0,1.1,62,0.00,,---,0.00,VWS V14.00,2013-07-16 23:16:00,
2013-07-16 19:21:00,88.0,73.3,30.24,WSW,248,0.0,1.1,62,0.00,,---,0.00,VWS V14.00,2013-07-16 23:21:00,
2013-07-16 19:26:00,87.8,73.2,30.24,WSW,248,0.0,0.9,62,0.00,,---,0.00,VWS V14.00,2013-07-16 23:26:00,
2013-07-16 19:31:00,87.8,73.2,30.24,SW,225,2.0,2.0,62,0.00,,---,0.00,VWS V14.00,2013-07-16 23:31:00,
2013-07-16 19:36:00,87.6,73.0,30.24,SW,225,0.0,0.0,62,0.00,,---,0.00,VWS V14.00,2013-07-16 23:36:00,
2013-07-16 19:41:00,87.6,73.0,30.24,SW,225,0.0,1.1,62,0.00,,---,0.00,VWS V14.00,2013-07-16 23:41:00,
2013-07-16 19:46:00,87.8,73.2,30.24,South,180,0.0,0.0,62,0.00,,---,0.00,VWS V14.00,2013-07-16 23:46:00,
2013-07-16 19:51:00,87.8,72.7,30.24,West,270,0.0,1.6,61,0.00,,---,0.00,VWS V14.00,2013-07-16 23:51:00,
2013-07-16 19:56:00,87.4,72.8,30.24,West,270,0.0,1.1,62,0.00,,---,0.00,VWS V14.00,2013-07-16 23:56:00,
2013-07-16 20:01:00,87.1,72.5,30.24,West,270,0.0,1.1,62,0.00,,---,0.00,VWS V14.00,2013-07-17 00:01:00,
2013-07-16 20:06:00,87.1,72.5,30.21,West,270,1.1,3.4,62,0.00,,---,0.00,VWS V14.00,2013-07-17 00:06:00,
2013-07-16 20:11:00,86.9,72.3,30.21,West,270,1.3,1.3,62,0.00,,---,0.00,VWS V14.00,2013-07-17 00:11:00,
2013-07-16 20:16:00,86.7,72.2,30.21,West,270,0.0,0.0,62,0.00,,---,0.00,VWS V14.00,2013-07-17 00:16:00,
2013-07-16 20:21:00,86.5,72.5,30.24,West,270,0.0,0.0,63,0.00,,---,0.00,VWS V14.00,2013-07-17 00:21:00,
2013-07-16 20:26:00,86.4,72.3,30.24,West,270,0.0,0.0,63,0.00,,---,0.00,VWS V14.00,2013-07-17 00:26:00,
2013-07-16 20:31:00,86.0,72.4,30.24,West,270,0.0,0.0,64,0.00,,---,0.00,VWS V14.00,2013-07-17 00:31:00,
2013-07-16 20:36:00,85.6,72.1,30.24,West,270,0.0,0.0,64,0.00,,---,0.00,VWS V14.00,2013-07-17 00:36:00,
2013-07-16 20:41:00,85.5,72.4,30.24,West,270,0.9,0.9,65,0.00,,---,0.00,VWS V14.00,2013-07-17 00:41:00,
2013-07-16 20:46:00,85.1,72.0,30.24,West,270,0.0,0.0,65,0.00,,---,0.00,VWS V14.00,2013-07-17 00:46:00,
2013-07-16 20:51:00,84.7,71.7,30.24,West,270,0.0,0.0,65,0.00,,---,0.00,VWS V14.00,2013-07-17 00:51:00,
2013-07-16 20:56:00,84.4,71.8,30.24,West,270,0.0,0.0,66,0.00,,---,0.00,VWS V14.00,2013-07-17 00:56:00,
2013-07-16 21:01:00,84.0,71.9,30.24,West,270,0.0,0.0,67,0.00,,---,0.00,VWS V14.00,2013-07-17 01:01:00,
2013-07-16 21:06:00,83.8,71.7,30.27,West,270,0.0,0.0,67,0.00,,---,0.00,VWS V14.00,2013-07-17 01:06:00,
2013-07-16 21:11:00,83.5,71.4,30.27,West,270,0.0,0.0,67,0.00,,---,0.00,VWS V14.00,2013-07-17 01:11:00,
2013-07-16 21:16:00,83.1,71.5,30.27,West,270,0.0,0.0,68,0.00,,---,0.00,VWS V14.00,2013-07-17 01:16:00,
2013-07-16 21:21:00,82.9,71.3,30.24,West,270,0.0,0.0,68,0.00,,---,0.00,VWS V14.00,2013-07-17 01:21:00,
2013-07-16 21:26:00,82.6,71.4,30.24,West,270,0.0,0.0,69,0.00,,---,0.00,VWS V14.00,2013-07-17 01:26:00,
2013-07-16 21:31:00,82.4,71.2,30.24,West,270,0.0,0.0,69,0.00,,---,0.00,VWS V14.00,2013-07-17 01:31:00,
2013-07-16 21:36:00,82.0,71.3,30.24,West,270,0.0,0.0,70,0.00,,---,0.00,VWS V14.00,2013-07-17 01:36:00,
2013-07-16 21:41:00,81.7,71.4,30.24,West,270,0.0,0.0,71,0.00,,---,0.00,VWS V14.00,2013-07-17 01:41:00,
2013-07-16 21:46:00,81.5,71.6,30.24,West,270,0.0,0.0,72,0.00,,---,0.00,VWS V14.00,2013-07-17 01:46:00,
2013-07-16 21:51:00,81.1,71.3,30.24,West,270,0.0,0.0,72,0.00,,---,0.00,VWS V14.00,2013-07-17 01:51:00,
2013-07-16 21:56:00,81.0,71.5,30.24,West,270,0.0,0.0,73,0.00,,---,0.00,VWS V14.00,2013-07-17 01:56:00,
2013-07-16 22:01:00,80.8,71.3,30.24,West,270,0.0,0.0,73,0.00,,---,0.00,VWS V14.00,2013-07-17 02:01:00,
2013-07-16 22:06:00,80.6,71.6,30.24,West,270,0.0,0.0,74,0.00,,---,0.00,VWS V14.00,2013-07-17 02:06:00,
2013-07-16 22:11:00,80.4,71.8,30.24,West,270,0.0,0.0,75,0.00,,---,0.00,VWS V14.00,2013-07-17 02:11:00,
2013-07-16 22:16:00,80.2,71.6,30.24,West,270,0.0,0.0,75,0.00,,---,0.00,VWS V14.00,2013-07-17 02:16:00,
2013-07-16 22:21:00,80.1,71.8,30.27,West,270,0.0,0.0,76,0.00,,---,0.00,VWS V14.00,2013-07-17 02:21:00,
2013-07-16 22:26:00,79.9,71.6,30.27,West,270,0.0,0.0,76,0.00,,---,0.00,VWS V14.00,2013-07-17 02:26:00,
2013-07-16 22:31:00,79.7,71.5,30.27,West,270,0.0,0.0,76,0.00,,---,0.00,VWS V14.00,2013-07-17 02:31:00,
2013-07-16 22:36:00,79.5,71.7,30.27,West,270,0.0,0.0,77,0.00,,---,0.00,VWS V14.00,2013-07-17 02:36:00,
2013-07-16 22:41:00,79.3,71.5,30.27,West,270,0.0,0.0,77,0.00,,---,0.00,VWS V14.00,2013-07-17 02:41:00,
2013-07-16 22:47:00,79.2,71.3,30.27,West,270,0.0,0.0,77,0.00,,---,0.00,VWS V14.00,2013-07-17 02:47:00,
2013-07-16 22:52:00,79.2,71.7,30.27,West,270,0.0,0.0,78,0.00,,---,0.00,VWS V14.00,2013-07-17 02:52:00,
2013-07-16 22:57:00,79.0,71.5,30.27,West,270,0.0,0.0,78,0.00,,---,0.00,VWS V14.00,2013-07-17 02:57:00,
2013-07-16 23:02:00,79.0,71.5,30.27,West,270,0.0,0.0,78,0.00,,---,0.00,VWS V14.00,2013-07-17 03:02:00,
2013-07-16 23:07:00,78.8,71.4,30.27,West,270,0.0,0.0,78,0.00,,---,0.00,VWS V14.00,2013-07-17 03:07:00,
2013-07-16 23:12:00,78.8,71.4,30.27,West,270,0.0,0.0,78,0.00,,---,0.00,VWS V14.00,2013-07-17 03:12:00,
2013-07-16 23:17:00,78.6,71.6,30.27,West,270,0.0,0.0,79,0.00,,---,0.00,VWS V14.00,2013-07-17 03:17:00,
2013-07-16 23:22:00,78.4,71.4,30.27,West,270,0.0,0.0,79,0.00,,---,0.00,VWS V14.00,2013-07-17 03:22:00,
2013-07-16 23:27:00,78.4,71.4,30.27,West,270,0.0,0.0,79,0.00,,---,0.00,VWS V14.00,2013-07-17 03:27:00,
2013-07-16 23:32:00,78.3,71.6,30.27,West,270,0.0,0.0,80,0.00,,---,0.00,VWS V14.00,2013-07-17 03:32:00,
2013-07-16 23:37:00,78.1,71.4,30.27,West,270,0.0,0.0,80,0.00,,---,0.00,VWS V14.00,2013-07-17 03:37:00,
2013-07-16 23:42:00,78.1,71.4,30.27,West,270,0.0,0.0,80,0.00,,---,0.00,VWS V14.00,2013-07-17 03:42:00,
2013-07-16 23:47:00,77.9,71.2,30.27,West,270,0.0,0.0,80,0.00,,---,0.00,VWS V14.00,2013-07-17 03:47:00,
2013-07-16 23:52:00,77.9,71.2,30.27,West,270,0.0,0.0,80,0.00,,---,0.00,VWS V14.00,2013-07-17 03:52:00,
2013-07-16 23:57:00,77.7,71.1,30.27,West,270,0.0,0.0,80,0.00,,---,0.00,VWS V14.00,2013-07-17 03:57:00,